Location: *
(49.3500°N, 12.6000°E)
Time: 17:49:56
(UTC+00:00)

Resurs 01 Rocket - Pass Details

Date: 18 October 2019
Orbit: 634 x 645 km, 98.0° (Epoch: 17 November)

Event Time Altitude Azimuth Distance (km) Brightness Sun altitude
Exits shadow 17:55:09 12° 36° (NE) 1,913 3.8 -17.2°
Drops below altitude 10° 17:55:57 10° 26° (NNE) 2,053 4.0 -17.3°
Sets 17:59:10 0° 1° (N) 2,967 5.1 -17.8°
